• In Hungary
  • List of Countries
  • For 7 days
  • Water Temperature
  • Satellite Maps
  • Weather Map
  • News
  • Weather Widgets
  • user-avatar
    Login

    Hourly Weather Burgas

    Today, 20 October, Friday

    Time Temperature Precipitation Wind Pressure Humidity
    00:00 +18°C° 0 mm 1 mps 761 mmHg 64%
    01:00 +18°C° 0 mm 1 mps 761 mmHg 64%
    02:00 +18°C° 0 mm 1 mps 761 mmHg 64%
    03:00 +16°C° 0 mm 1 mps 761 mmHg 64%
    04:00 +16°C° 0 mm 1 mps 761 mmHg 64%
    05:00 +16°C° 0 mm 1 mps 761 mmHg 63%
    06:00 +18°C° 0 mm 1 mps 761 mmHg 60%
    07:00 +18°C° 0 mm 1 mps 761 mmHg 58%
    08:00 +19°C° 0 mm 1 mps 761 mmHg 55%
    09:00 +21°C° 0 mm 1 mps 761 mmHg 48%
    10:00 +24°C° 0 mm 1 mps 761 mmHg 41%
    11:00 +26°C° 0 mm 1 mps 761 mmHg 35%
    12:00 +27°C° 0 mm 1 mps 761 mmHg 32%
    13:00 +27°C° 0 mm 1 mps 761 mmHg 30%
    14:00 +28°C° 0 mm 1 mps 761 mmHg 28%
    15:00 +27°C° 0 mm 1 mps 761 mmHg 31%
    16:00 +25°C° 0 mm 2 mps 760 mmHg 35%
    17:00 +24°C° 0 mm 2 mps 760 mmHg 38%
    18:00 +23°C° 0 mm 2 mps 761 mmHg 41%
    19:00 +22°C° 0 mm 1 mps 761 mmHg 43%
    20:00 +20°C° 0 mm 1 mps 761 mmHg 46%
    21:00 +20°C° 0 mm 1 mps 761 mmHg 46%
    22:00 +20°C° 0 mm 1 mps 761 mmHg 47%
    23:00 +19°C° 0 mm 1 mps 761 mmHg 48%

    Tomorrow, 21 October, Saturday

    Time Temperature Precipitation Wind Pressure Humidity
    00:00 +19°C° 0 mm 1 mps 761 mmHg 49%
    01:00 +19°C° 0 mm 1 mps 761 mmHg 50%
    02:00 +18°C° 0 mm 1 mps 761 mmHg 50%
    03:00 +18°C° 0 mm 1 mps 761 mmHg 51%
    04:00 +18°C° 0 mm 1 mps 761 mmHg 52%
    05:00 +16°C° 0 mm 1 mps 761 mmHg 53%
    06:00 +18°C° 0 mm 1 mps 761 mmHg 52%
    07:00 +19°C° 0 mm 1 mps 761 mmHg 51%
    08:00 +20°C° 0 mm 1 mps 761 mmHg 50%
    09:00 +22°C° 0 mm 1 mps 761 mmHg 45%
    10:00 +24°C° 0 mm 1 mps 761 mmHg 40%
    11:00 +26°C° 0 mm 1 mps 761 mmHg 34%
    12:00 +27°C° 0 mm 1 mps 761 mmHg 32%
    13:00 +27°C° 0 mm 1 mps 760 mmHg 30%
    14:00 +28°C° 0 mm 1 mps 760 mmHg 28%
    15:00 +26°C° 0 mm 1 mps 760 mmHg 32%
    16:00 +25°C° 0 mm 1 mps 759 mmHg 35%
    17:00 +24°C° 0 mm 1 mps 759 mmHg 39%
    18:00 +23°C° 0 mm 1 mps 759 mmHg 41%
    19:00 +22°C° 0 mm 1 mps 759 mmHg 43%
    20:00 +20°C° 0 mm 1 mps 760 mmHg 45%
    21:00 +20°C° 0 mm 1 mps 760 mmHg 46%
    22:00 +20°C° 0 mm 1 mps 759 mmHg 47%
    23:00 +19°C° 0 mm 1 mps 759 mmHg 48%

    Day after tomorrow, 22 October, Sunday

    Time Temperature Precipitation Wind Pressure Humidity
    00:00 +19°C° 0 mm 1 mps 759 mmHg 49%
    01:00 +19°C° 0 mm 1 mps 759 mmHg 50%
    02:00 +18°C° 0 mm 1 mps 759 mmHg 51%
    03:00 +17°C° 0 mm 2 mps 759 mmHg 51%
    04:00 +17°C° 0 mm 2 mps 759 mmHg 52%
    05:00 +16°C° 0 mm 2 mps 758 mmHg 53%
    06:00 +17°C° 0 mm 2 mps 759 mmHg 53%
    07:00 +18°C° 0 mm 2 mps 759 mmHg 52%
    08:00 +18°C° 0 mm 2 mps 759 mmHg 52%
    09:00 +20°C° 0 mm 2 mps 759 mmHg 47%
    10:00 +23°C° 0 mm 2 mps 759 mmHg 41%
    11:00 +25°C° 0 mm 2 mps 759 mmHg 36%
    12:00 +26°C° 0 mm 2 mps 759 mmHg 35%
    13:00 +26°C° 0 mm 2 mps 758 mmHg 34%
    14:00 +26°C° 0 mm 1 mps 758 mmHg 32%
    15:00 +25°C° 0 mm 2 mps 758 mmHg 36%
    16:00 +24°C° 0 mm 2 mps 758 mmHg 40%
    17:00 +23°C° 0 mm 2 mps 758 mmHg 43%
    18:00 +21°C° 0 mm 2 mps 758 mmHg 48%
    19:00 +19°C° 0 mm 2 mps 758 mmHg 53%
    20:00 +18°C° 0 mm 2 mps 758 mmHg 59%
    21:00 +18°C° 0 mm 2 mps 758 mmHg 61%
    22:00 +17°C° 0 mm 2 mps 758 mmHg 64%
    23:00 +17°C° 0 mm 2 mps 758 mmHg 67%

    23 October, Monday

    Time Temperature Precipitation Wind Pressure Humidity
    00:00 +16°C° 0 mm 2 mps 758 mmHg 69%
    01:00 +16°C° 0 mm 2 mps 757 mmHg 71%
    02:00 +16°C° 0 mm 2 mps 757 mmHg 73%
    03:00 +16°C° 0 mm 2 mps 757 mmHg 73%
    04:00 +15°C° 0 mm 2 mps 756 mmHg 74%
    05:00 +15°C° 0 mm 2 mps 756 mmHg 75%
    06:00 +16°C° 0 mm 2 mps 756 mmHg 73%
    07:00 +16°C° 0 mm 2 mps 756 mmHg 72%
    08:00 +17°C° 0 mm 2 mps 756 mmHg 70%
    09:00 +19°C° 0 mm 3 mps 755 mmHg 63%
    10:00 +21°C° 0 mm 3 mps 755 mmHg 55%
    11:00 +22°C° 0 mm 4 mps 755 mmHg 47%
    12:00 +23°C° 0 mm 4 mps 754 mmHg 45%
    13:00 +23°C° 0 mm 4 mps 753 mmHg 43%
    14:00 +25°C° 0 mm 4 mps 753 mmHg 41%
    15:00 +23°C° 0 mm 4 mps 753 mmHg 45%
    16:00 +22°C° 0 mm 4 mps 752 mmHg 49%
    17:00 +21°C° 0 mm 4 mps 752 mmHg 53%
    18:00 +20°C° 0 mm 4 mps 752 mmHg 58%
    19:00 +19°C° 0 mm 4 mps 752 mmHg 62%
    20:00 +18°C° 0 mm 3 mps 752 mmHg 66%
    21:00 +18°C° 0 mm 3 mps 752 mmHg 68%
    22:00 +17°C° 0 mm 3 mps 752 mmHg 69%
    23:00 +17°C° 0 mm 2 mps 752 mmHg 71%

    24 October, Tuesday

    Time Temperature Precipitation Wind Pressure Humidity
    00:00 +16°C° 0 mm 2 mps 752 mmHg 71%
    01:00 +16°C° 0 mm 2 mps 751 mmHg 70%
    02:00 +16°C° 0 mm 2 mps 751 mmHg 70%
    03:00 +16°C° 0 mm 2 mps 751 mmHg 71%
    04:00 +16°C° 0 mm 2 mps 751 mmHg 73%
    05:00 +16°C° 0 mm 2 mps 751 mmHg 74%
    06:00 +16°C° 0 mm 2 mps 751 mmHg 75%
    07:00 +17°C° 0 mm 2 mps 751 mmHg 76%
    08:00 +17°C° 0 mm 2 mps 751 mmHg 78%
    09:00 +18°C° 0.3 mm 2 mps 751 mmHg 74%
    10:00 +19°C° 0.3 mm 2 mps 752 mmHg 71%
    11:00 +19°C° 0.3 mm 2 mps 752 mmHg 67%
    12:00 +20°C° 0.1 mm 3 mps 751 mmHg 63%
    13:00 +21°C° 0.1 mm 3 mps 751 mmHg 58%
    14:00 +21°C° 0.1 mm 4 mps 751 mmHg 54%
    15:00 +21°C° 0 mm 5 mps 751 mmHg 59%
    16:00 +20°C° 0 mm 5 mps 752 mmHg 64%
    17:00 +19°C° 0 mm 6 mps 752 mmHg 70%
    18:00 +19°C° 0.1 mm 6 mps 752 mmHg 76%
    19:00 +17°C° 0.1 mm 6 mps 752 mmHg 82%
    20:00 +17°C° 0.1 mm 6 mps 753 mmHg 88%
    21:00 +17°C° 0.2 mm 7 mps 753 mmHg 87%
    22:00 +17°C° 0.2 mm 7 mps 753 mmHg 87%
    23:00 +17°C° 0.2 mm 7 mps 753 mmHg 86%

    25 October, Wednesday

    Time Temperature Precipitation Wind Pressure Humidity
    00:00 +17°C° 0.3 mm 7 mps 753 mmHg 86%
    01:00 +17°C° 0.3 mm 7 mps 754 mmHg 86%
    02:00 +17°C° 0.3 mm 7 mps 754 mmHg 86%
    03:00 +17°C° 0.2 mm 7 mps 754 mmHg 86%
    04:00 +17°C° 0.2 mm 7 mps 754 mmHg 86%
    05:00 +16°C° 0.2 mm 7 mps 754 mmHg 87%
    06:00 +16°C° 0.4 mm 7 mps 755 mmHg 86%
    07:00 +16°C° 0.4 mm 8 mps 755 mmHg 85%
    08:00 +16°C° 0.4 mm 8 mps 756 mmHg 84%
    09:00 +16°C° 0.7 mm 8 mps 756 mmHg 83%
    10:00 +16°C° 0.7 mm 8 mps 757 mmHg 82%
    11:00 +16°C° 0.7 mm 8 mps 757 mmHg 81%
    12:00 +16°C° 1.3 mm 8 mps 757 mmHg 81%
    13:00 +16°C° 1.3 mm 8 mps 758 mmHg 82%
    14:00 +16°C° 1.3 mm 8 mps 758 mmHg 83%
    15:00 +15°C° 1.3 mm 8 mps 758 mmHg 84%
    16:00 +15°C° 1.3 mm 8 mps 759 mmHg 84%
    17:00 +13°C° 1.3 mm 8 mps 759 mmHg 85%
    18:00 +13°C° 1.1 mm 9 mps 760 mmHg 84%
    19:00 +12°C° 1.1 mm 9 mps 761 mmHg 84%
    20:00 +12°C° 1.1 mm 9 mps 761 mmHg 84%
    21:00 +12°C° 0.3 mm 9 mps 762 mmHg 82%
    22:00 +11°C° 0.3 mm 8 mps 762 mmHg 80%
    23:00 +11°C° 0.3 mm 8 mps 763 mmHg 79%
    Show more